Fergus Falls, MN

8:04 PM CDT on April 24, 2018 (GMT -0500)
Fergus Falls Municipal-Mickelson

Weather History for KFFM - March, 2013

Change the Weather History Date:

Tuesday, March 19, 2013

  Actual Average Record
Temperature  
Mean Temperature 2 °F -  
Max Temperature 12 °F 37 °F 73 °F (2012)
Min Temperature -7 °F 20 °F -8 °F (1965)
Degree Days  
Heating Degree Days 62    
Moisture  
Dew Point -4 °F    
Average Humidity 72    
Maximum Humidity 85    
Minimum Humidity 57    
Precipitation  
Precipitation 0.00 in - - ()
Sea Level Pressure  
Sea Level Pressure 30.14 in    
Wind  
Wind Speed 14 mph (NW)    
Max Wind Speed 21 mph    
Max Gust Speed 25 mph    
Visibility 10 miles    
Events      
Averages and records for this station are not official NWS values.
T = Trace of Precipitation, MM = Missing Value Source: NWS Daily Summary

Daily Weather History Graph

Daily Weather History Graph

Search for Another Location

Airport or City:

Astronomy

Mar. 19, 2013 Rise Set
Actual Time 7:29 AM CDT 7:36 PM CDT
Civil Twilight 6:59 AM CDT 8:06 PM CDT
Nautical Twilight 6:24 AM CDT 8:41 PM CDT
Astronomical Twilight 5:47 AM CDT 9:17 PM CDT
Moon 12:01 PM CDT (3/19) 2:42 AM CDT (3/19)
Length of Visible Light 13h 07m
Length of Day
12h 07m
Waxing Crescent, 50% of the Moon is Illuminated
Mar 19
Waxing Crescent
Mar 19
First Quarter
Mar 27
Full
Apr 2
Last Quarter
Apr 10
New

Hourly Weather History & Observations

Time (CDT) Temp. Windchill Dew Point Humidity Pressure Visibility Wind Dir Wind Speed Gust Speed Precip Events Conditions
12:13 AM 3.2 °F -16.5 °F -0.4 °F 85% 29.95 in 10.0 mi NW 17.3 mph - N/A   Scattered Clouds
12:33 AM 3.2 °F -16.5 °F -2.2 °F 78% 29.95 in 10.0 mi NW 17.3 mph - N/A   Clear
1:13 AM 1.4 °F -17.6 °F -2.2 °F 85% 29.95 in 10.0 mi NW 15.0 mph - N/A   Clear
1:33 AM 1.4 °F -18.2 °F -4.0 °F 78% 29.95 in 10.0 mi NW 16.1 mph - N/A   Clear
1:53 AM 1.4 °F -18.2 °F -4.0 °F 78% 29.96 in 10.0 mi NW 16.1 mph - N/A   Clear
2:13 AM 1.4 °F -18.2 °F -4.0 °F 78% 29.97 in 10.0 mi NW 16.1 mph - N/A   Clear
2:33 AM -0.4 °F -18.4 °F -5.8 °F 78% 29.98 in 10.0 mi NW 12.7 mph - N/A   Clear
2:53 AM -0.4 °F -18.4 °F -5.8 °F 78% 29.98 in 10.0 mi NW 12.7 mph - N/A   Clear
3:13 AM -0.4 °F -18.4 °F -7.6 °F 72% 29.99 in 10.0 mi NW 12.7 mph - N/A   Clear
3:33 AM -2.2 °F -19.9 °F -7.6 °F 78% 30.00 in 10.0 mi NW 11.5 mph - N/A   Clear
3:53 AM -2.2 °F -21.5 °F -7.6 °F 78% 30.00 in 10.0 mi NW 13.8 mph - N/A   Clear
4:13 AM -2.2 °F -20.7 °F -7.6 °F 78% 30.00 in 10.0 mi NW 12.7 mph - N/A   Clear
4:33 AM -2.2 °F -20.7 °F -7.6 °F 78% 30.01 in 10.0 mi NW 12.7 mph - N/A   Clear
4:53 AM -2.2 °F -19.9 °F -7.6 °F 78% 30.01 in 10.0 mi NW 11.5 mph - N/A   Clear
5:13 AM -2.2 °F -21.5 °F -7.6 °F 78% 30.02 in 10.0 mi NW 13.8 mph - N/A   Clear
5:33 AM -4.0 °F -23.7 °F -9.4 °F 78% 30.02 in 10.0 mi NW 13.8 mph - N/A   Clear
5:53 AM -4.0 °F -23.0 °F -9.4 °F 78% 30.03 in 10.0 mi NW 12.7 mph - N/A   Clear
6:13 AM -2.2 °F -20.7 °F -9.4 °F 71% 30.04 in 10.0 mi NW 12.7 mph - N/A   Clear
6:53 AM -4.0 °F -20.2 °F -11.2 °F 71% 30.05 in 10.0 mi NW 9.2 mph - N/A   Clear
7:13 AM -5.8 °F -23.4 °F -11.2 °F 77% 30.06 in 10.0 mi NW 10.4 mph - N/A   Clear
7:34 AM -7.6 °F -24.6 °F -13.0 °F 77% 30.07 in 10.0 mi NW 9.2 mph - N/A   Clear
7:53 AM -7.6 °F -26.6 °F -13.0 °F 77% 30.09 in 10.0 mi NW 11.5 mph - N/A   Clear
8:13 AM -5.8 °F -24.4 °F -11.2 °F 77% 30.10 in 10.0 mi NW 11.5 mph - N/A   Clear
8:34 AM -5.8 °F -26.0 °F -11.2 °F 77% 30.10 in 10.0 mi NW 13.8 mph - N/A   Clear
8:53 AM -2.2 °F -20.7 °F -9.4 °F 71% 30.11 in 10.0 mi NNW 12.7 mph - N/A   Clear
9:13 AM -2.2 °F -20.7 °F -9.4 °F 71% 30.12 in 10.0 mi NNW 12.7 mph - N/A   Clear
9:34 AM -2.2 °F -19.9 °F -9.4 °F 71% 30.13 in 10.0 mi NNW 11.5 mph - N/A   Clear
9:53 AM -0.4 °F -15.7 °F -7.6 °F 72% 30.13 in 10.0 mi NW 9.2 mph - N/A   Scattered Clouds
10:13 AM -0.4 °F -15.7 °F -7.6 °F 72% 30.13 in 10.0 mi NW 9.2 mph - N/A   Scattered Clouds
10:34 AM 1.4 °F -14.5 °F -7.6 °F 66% 30.14 in 10.0 mi NW 10.4 mph - N/A   Scattered Clouds
10:53 AM 1.4 °F -15.3 °F -7.6 °F 66% 30.14 in 10.0 mi NW 11.5 mph - N/A   Clear
11:13 AM 1.4 °F -16.1 °F -5.8 °F 72% 30.15 in 10.0 mi NW 12.7 mph - N/A   Clear
11:34 AM 3.2 °F -13.9 °F -5.8 °F 66% 30.16 in 10.0 mi NW 12.7 mph - N/A   Clear
11:53 AM 3.2 °F -15.3 °F -5.8 °F 66% 30.16 in 10.0 mi NNW 15.0 mph - N/A   Clear
12:13 PM 3.2 °F -15.3 °F -4.0 °F 72% 30.16 in 10.0 mi NNW 15.0 mph - N/A   Scattered Clouds
12:33 PM 6.8 °F -11.3 °F -2.2 °F 67% 30.17 in 10.0 mi NNW 16.1 mph - N/A   Mostly Cloudy
12:53 PM 6.8 °F -11.8 °F -2.2 °F 67% 30.17 in 10.0 mi NW 17.3 mph - N/A   Overcast
1:13 PM 8.6 °F -9.5 °F -0.4 °F 67% 30.17 in 10.0 mi NW 17.3 mph - N/A   Overcast
1:33 PM 8.6 °F -8.3 °F -0.4 °F 67% 30.17 in 10.0 mi NNW 15.0 mph 18.4 mph N/A   Mostly Cloudy
1:53 PM 8.6 °F -8.9 °F -0.4 °F 67% 30.17 in 10.0 mi NW 16.1 mph - N/A   Scattered Clouds
2:13 PM 8.6 °F -11.0 °F -0.4 °F 67% 30.18 in 10.0 mi NNW 20.7 mph - N/A   Scattered Clouds
2:33 PM 10.4 °F -7.7 °F -0.4 °F 62% 30.19 in 10.0 mi NNW 18.4 mph 25.3 mph N/A   Clear
2:53 PM 10.4 °F -8.6 °F -0.4 °F 62% 30.19 in 10.0 mi NNW 20.7 mph - N/A   Clear
3:13 PM 10.4 °F -7.2 °F -0.4 °F 62% 30.19 in 10.0 mi NNW 17.3 mph - N/A   Clear
3:33 PM 10.4 °F -8.2 °F -2.2 °F 57% 30.20 in 10.0 mi NNW 19.6 mph - N/A   Clear
3:53 PM 10.4 °F -6.6 °F -0.4 °F 62% 30.20 in 10.0 mi NNW 16.1 mph - N/A   Clear
4:13 PM 12.2 °F -4.8 °F -0.4 °F 57% 30.21 in 10.0 mi NW 17.3 mph 21.9 mph N/A   Clear
4:33 PM 12.2 °F -5.3 °F -0.4 °F 57% 30.22 in 10.0 mi NNW 18.4 mph - N/A   Clear
4:53 PM 12.2 °F -3.1 °F -0.4 °F 57% 30.23 in 10.0 mi NNW 13.8 mph - N/A   Clear
5:13 PM 12.2 °F -4.3 °F -0.4 °F 57% 30.23 in 10.0 mi NNW 16.1 mph - N/A   Clear
5:33 PM 12.2 °F -3.1 °F -0.4 °F 57% 30.24 in 10.0 mi NNW 13.8 mph - N/A   Clear
5:53 PM 12.2 °F -3.1 °F -0.4 °F 57% 30.24 in 10.0 mi NNW 13.8 mph 20.7 mph N/A   Clear
6:13 PM 10.4 °F -4.1 °F -0.4 °F 62% 30.25 in 10.0 mi NNW 11.5 mph - N/A   Clear
6:33 PM 10.4 °F -4.1 °F -0.4 °F 62% 30.25 in 10.0 mi NW 11.5 mph - N/A   Clear
6:53 PM 8.6 °F -7.0 °F -0.4 °F 67% 30.25 in 10.0 mi NW 12.7 mph - N/A   Clear
7:14 PM 8.6 °F -7.7 °F -0.4 °F 67% 30.26 in 10.0 mi NW 13.8 mph - N/A   Clear
7:33 PM 6.8 °F -8.6 °F -0.4 °F 72% 30.26 in 10.0 mi NW 11.5 mph - N/A   Clear
7:53 PM 6.8 °F -9.3 °F -0.4 °F 72% 30.27 in 10.0 mi NW 12.7 mph - N/A   Clear
8:14 PM 3.2 °F -12.2 °F -2.2 °F 78% 30.28 in 10.0 mi NW 10.4 mph - N/A   Clear
8:53 PM 3.2 °F -13.1 °F -2.2 °F 78% 30.28 in 10.0 mi NW 11.5 mph - N/A   Clear
9:14 PM 3.2 °F -13.9 °F -2.2 °F 78% 30.28 in 10.0 mi NW 12.7 mph - N/A   Clear
9:33 PM 1.4 °F -16.1 °F -2.2 °F 85% 30.29 in 10.0 mi NW 12.7 mph - N/A   Clear
9:53 PM 1.4 °F -16.9 °F -2.2 °F 85% 30.29 in 10.0 mi NW 13.8 mph - N/A   Clear
10:13 PM 1.4 °F -16.9 °F -2.2 °F 85% 30.29 in 10.0 mi NW 13.8 mph - N/A   Clear
10:33 PM 3.2 °F -14.6 °F -2.2 °F 78% 30.29 in 10.0 mi NW 13.8 mph - N/A   Clear
10:53 PM 1.4 °F -16.9 °F -4.0 °F 78% 30.30 in 10.0 mi NW 13.8 mph - N/A   Clear
11:13 PM 1.4 °F -14.5 °F -2.2 °F 85% 30.30 in 10.0 mi NW 10.4 mph - N/A   Clear
11:33 PM -0.4 °F -18.4 °F -4.0 °F 85% 30.30 in 10.0 mi NW 12.7 mph - N/A   Clear
11:53 PM 1.4 °F -16.9 °F -2.2 °F 85% 30.30 in 10.0 mi NW 13.8 mph - N/A   Clear